Time,TemperatureF,DewpointF,PressureIn,WindDirection,WindDirectionDegrees,WindSpeedMPH,WindSpeedGustMPH,Humidity,HourlyPrecipIn,Conditions,Clouds,dailyrainin,SolarRadiationWatts/m^2,SoftwareType,DateUTC
2014-09-14 00:03:00,-999.0,-99.9,-100.00,NNE,17,5.0,9.0,-999,-99.99,,,-99.99,0.000000,,2014-09-14 04:03:00,
2014-09-14 00:44:00,65.0,58.0,-100.00,NNE,19,5.0,11.0,79,0.00,,,0.00,0.000000,,2014-09-14 04:44:00,
2014-09-14 00:54:00,65.0,58.0,-100.00,NNE,19,5.0,11.0,79,0.00,,,0.00,0.000000,,2014-09-14 04:54:00,
2014-09-14 01:03:00,65.0,58.0,-100.00,NNE,19,5.0,11.0,79,0.00,,,0.00,0.000000,,2014-09-14 05:03:00,
2014-09-14 01:43:00,63.0,58.0,-100.00,North,5,4.0,7.0,83,0.00,,,0.00,0.000000,,2014-09-14 05:43:00,
2014-09-14 01:53:00,63.0,58.0,-100.00,North,5,4.0,7.0,83,0.00,,,0.00,0.000000,,2014-09-14 05:53:00,
2014-09-14 02:02:00,63.0,58.0,-100.00,North,5,4.0,7.0,83,0.00,,,0.00,0.000000,,2014-09-14 06:02:00,
2014-09-14 02:42:00,62.0,58.0,-100.00,North,8,4.0,6.0,86,0.00,,,0.00,0.000000,,2014-09-14 06:42:00,
2014-09-14 02:52:00,62.0,58.0,-100.00,North,8,4.0,6.0,86,0.00,,,0.00,0.000000,,2014-09-14 06:52:00,
2014-09-14 03:03:00,62.0,58.0,-100.00,North,8,4.0,6.0,86,0.00,,,0.00,0.000000,,2014-09-14 07:03:00,
2014-09-14 03:43:00,62.0,58.0,-100.00,NNE,29,4.0,7.0,87,0.00,,,0.00,0.000000,,2014-09-14 07:43:00,
2014-09-14 03:54:00,62.0,58.0,-100.00,NNE,29,4.0,7.0,87,0.00,,,0.00,0.000000,,2014-09-14 07:54:00,
2014-09-14 04:02:00,62.0,58.0,-100.00,NNE,29,4.0,7.0,87,0.00,,,0.00,0.000000,,2014-09-14 08:02:00,
2014-09-14 04:42:00,60.0,57.0,-100.00,NE,38,2.0,6.0,89,0.00,,,0.00,0.000000,,2014-09-14 08:42:00,
2014-09-14 04:52:00,60.0,57.0,-100.00,NE,38,2.0,6.0,89,0.00,,,0.00,0.000000,,2014-09-14 08:52:00,
2014-09-14 05:02:00,60.0,57.0,-100.00,NE,38,2.0,6.0,89,0.00,,,0.00,0.000000,,2014-09-14 09:02:00,
2014-09-14 05:44:00,61.0,58.0,-100.00,NE,41,3.0,5.0,90,0.00,,,0.00,0.000000,,2014-09-14 09:44:00,
2014-09-14 05:54:00,61.0,58.0,-100.00,NE,41,3.0,5.0,90,0.00,,,0.00,0.000000,,2014-09-14 09:54:00,
2014-09-14 06:03:00,61.0,58.0,-100.00,NE,41,3.0,5.0,90,0.00,,,0.00,0.000000,,2014-09-14 10:03:00,
2014-09-14 06:43:00,62.0,57.0,-100.00,NNE,31,4.0,7.0,85,0.00,,,0.00,0.000000,,2014-09-14 10:43:00,
2014-09-14 06:54:00,62.0,57.0,-100.00,NNE,31,4.0,7.0,85,0.00,,,0.00,0.000000,,2014-09-14 10:54:00,
2014-09-14 07:03:00,62.0,57.0,-100.00,NNE,31,4.0,7.0,85,0.00,,,0.00,0.000000,,2014-09-14 11:03:00,
2014-09-14 07:43:00,62.0,58.0,-100.00,North,7,4.0,7.0,86,0.00,,,0.00,0.000000,,2014-09-14 11:43:00,
2014-09-14 07:53:00,62.0,58.0,-100.00,North,7,4.0,7.0,86,0.00,,,0.00,0.000000,,2014-09-14 11:53:00,
2014-09-14 08:02:00,62.0,58.0,-100.00,North,7,4.0,7.0,86,0.00,,,0.00,0.000000,,2014-09-14 12:02:00,
2014-09-14 08:42:00,63.0,58.0,-100.00,North,7,3.0,6.0,85,0.00,,,0.00,9.000000,,2014-09-14 12:42:00,
2014-09-14 08:52:00,63.0,58.0,-100.00,North,7,3.0,6.0,85,0.00,,,0.00,9.000000,,2014-09-14 12:52:00,
2014-09-14 09:03:00,63.0,58.0,-100.00,North,7,3.0,6.0,85,0.00,,,0.00,9.000000,,2014-09-14 13:03:00,
2014-09-14 09:42:00,64.0,58.0,-100.00,North,0,5.0,7.0,80,0.00,,,0.00,69.000000,,2014-09-14 13:42:00,
2014-09-14 09:53:00,64.0,58.0,-100.00,North,0,5.0,7.0,80,0.00,,,0.00,69.000000,,2014-09-14 13:53:00,
2014-09-14 10:03:00,64.0,58.0,-100.00,North,0,5.0,7.0,80,0.00,,,0.00,69.000000,,2014-09-14 14:03:00,
2014-09-14 10:43:00,66.0,59.0,-100.00,NNE,31,3.0,9.0,78,0.00,,,0.00,126.000000,,2014-09-14 14:43:00,
2014-09-14 10:53:00,66.0,59.0,-100.00,NNE,31,3.0,9.0,78,0.00,,,0.00,126.000000,,2014-09-14 14:53:00,
2014-09-14 11:02:00,66.0,59.0,-100.00,NNE,31,3.0,9.0,78,0.00,,,0.00,126.000000,,2014-09-14 15:02:00,
2014-09-14 11:44:00,68.0,60.0,-100.00,NNW,343,3.0,7.0,75,0.00,,,0.00,213.000000,,2014-09-14 15:44:00,
2014-09-14 11:54:00,68.0,60.0,-100.00,NNW,343,3.0,7.0,75,0.00,,,0.00,213.000000,,2014-09-14 15:54:00,
2014-09-14 12:04:00,68.0,60.0,-100.00,NNW,343,3.0,7.0,75,0.00,,,0.00,213.000000,,2014-09-14 16:04:00,
2014-09-14 12:44:00,70.0,61.0,-100.00,NW,323,4.0,6.0,73,0.00,,,0.00,264.000000,,2014-09-14 16:44:00,
2014-09-14 12:53:00,70.0,61.0,-100.00,NW,323,4.0,6.0,73,0.00,,,0.00,264.000000,,2014-09-14 16:53:00,
2014-09-14 13:04:00,70.0,61.0,-100.00,NW,323,4.0,6.0,73,0.00,,,0.00,264.000000,,2014-09-14 17:04:00,
2014-09-14 13:44:00,73.0,63.0,-100.00,NW,324,3.0,7.0,70,0.00,,,0.00,373.000000,,2014-09-14 17:44:00,
2014-09-14 13:55:00,73.0,63.0,-100.00,NW,324,3.0,7.0,70,0.00,,,0.00,373.000000,,2014-09-14 17:55:00,
2014-09-14 14:03:00,73.0,63.0,-100.00,NW,324,3.0,7.0,70,0.00,,,0.00,373.000000,,2014-09-14 18:03:00,
2014-09-14 14:43:00,75.0,64.0,-100.00,North,10,3.0,6.0,68,0.00,,,0.00,461.000000,,2014-09-14 18:43:00,
2014-09-14 14:53:00,75.0,64.0,-100.00,North,10,3.0,6.0,68,0.00,,,0.00,461.000000,,2014-09-14 18:53:00,
2014-09-14 15:02:00,75.0,64.0,-100.00,North,10,3.0,6.0,68,0.00,,,0.00,461.000000,,2014-09-14 19:02:00,
2014-09-14 15:42:00,76.0,65.0,-100.00,WNW,283,2.0,7.0,69,0.00,,,0.00,286.000000,,2014-09-14 19:42:00,
2014-09-14 15:53:00,76.0,65.0,-100.00,WNW,283,2.0,7.0,69,0.00,,,0.00,286.000000,,2014-09-14 19:53:00,
2014-09-14 16:03:00,76.0,65.0,-100.00,WNW,283,2.0,7.0,69,0.00,,,0.00,286.000000,,2014-09-14 20:03:00,
2014-09-14 16:43:00,77.0,66.0,-100.00,South,189,6.0,10.0,70,0.00,,,0.00,493.000000,,2014-09-14 20:43:00,
2014-09-14 16:53:00,77.0,66.0,-100.00,South,189,6.0,10.0,70,0.00,,,0.00,493.000000,,2014-09-14 20:53:00,
2014-09-14 17:02:00,77.0,66.0,-100.00,South,189,6.0,10.0,70,0.00,,,0.00,493.000000,,2014-09-14 21:02:00,
2014-09-14 17:44:00,80.0,67.0,-100.00,SSW,209,4.0,10.0,65,0.00,,,0.00,504.000000,,2014-09-14 21:44:00,
2014-09-14 17:54:00,80.0,67.0,-100.00,SSW,209,4.0,10.0,65,0.00,,,0.00,504.000000,,2014-09-14 21:54:00,
2014-09-14 18:04:00,80.0,67.0,-100.00,SSW,209,4.0,10.0,65,0.00,,,0.00,504.000000,,2014-09-14 22:04:00,
2014-09-14 18:43:00,80.0,66.0,-100.00,SW,228,3.0,8.0,63,0.00,,,0.00,346.000000,,2014-09-14 22:43:00,
2014-09-14 18:53:00,80.0,66.0,-100.00,SW,228,3.0,8.0,63,0.00,,,0.00,346.000000,,2014-09-14 22:53:00,
2014-09-14 19:02:00,80.0,66.0,-100.00,SW,228,3.0,8.0,63,0.00,,,0.00,346.000000,,2014-09-14 23:02:00,
2014-09-14 19:43:00,77.0,68.0,-100.00,ESE,112,1.0,6.0,74,0.00,,,0.00,151.000000,,2014-09-14 23:43:00,
2014-09-14 19:53:00,77.0,68.0,-100.00,ESE,112,1.0,6.0,74,0.00,,,0.00,151.000000,,2014-09-14 23:53:00,
2014-09-14 20:02:00,77.0,68.0,-100.00,ESE,112,1.0,6.0,74,0.00,,,0.00,151.000000,,2014-09-15 00:02:00,
2014-09-14 20:42:00,71.0,69.0,-100.00,North,-999,0.0,4.0,94,0.00,,,0.00,19.000000,,2014-09-15 00:42:00,
2014-09-14 20:52:00,71.0,69.0,-100.00,North,-999,0.0,4.0,94,0.00,,,0.00,19.000000,,2014-09-15 00:52:00,
2014-09-14 21:02:00,71.0,69.0,-100.00,North,-999,0.0,4.0,94,0.00,,,0.00,19.000000,,2014-09-15 01:02:00,
2014-09-14 21:42:00,69.0,68.0,-100.00,SE,130,1.0,3.0,97,0.00,,,0.00,0.000000,,2014-09-15 01:42:00,
2014-09-14 21:53:00,69.0,68.0,-100.00,SE,130,1.0,3.0,97,0.00,,,0.00,0.000000,,2014-09-15 01:53:00,
2014-09-14 22:02:00,69.0,68.0,-100.00,SE,130,1.0,3.0,97,0.00,,,0.00,0.000000,,2014-09-15 02:02:00,
2014-09-14 22:42:00,69.0,68.0,-100.00,North,-999,0.0,2.0,97,0.00,,,0.00,0.000000,,2014-09-15 02:42:00,
2014-09-14 22:52:00,69.0,68.0,-100.00,North,-999,0.0,2.0,97,0.00,,,0.00,0.000000,,2014-09-15 02:52:00,
2014-09-14 23:02:00,69.0,68.0,-100.00,North,-999,0.0,2.0,97,0.00,,,0.00,0.000000,,2014-09-15 03:02:00,